Weather History for Aurora, IL

Change the Weather History Date:

Wednesday, February 6, 2013

  Actual Average Record
Temperature  
Mean Temperature 21 °F 22 °F  
Max Temperature 37 °F 31 °F 46 °F (2005)
Min Temperature 5 °F 14 °F -14 °F (2014)
Degree Days  
Heating Degree Days 44 43  
Month to date heating degree days 304 260  
Since 1 July heating degree days 3991 4277  
Cooling Degree Days 0 0  
Month to date cooling degree days 0 0  
Year to date cooling degree days 0 0  
Moisture  
Dew Point 21 °F    
Average Humidity 84    
Maximum Humidity 100    
Minimum Humidity 68    
Precipitation  
Precipitation 0.00 in 0.05 in 0.27 in (2008)
Month to date precipitation 0.01 0.25  
Year to date precipitation 3.15 1.72  
Sea Level Pressure  
Sea Level Pressure 30.18 in    
Wind  
Wind Speed 6 mph (SE)    
Max Wind Speed 15 mph    
Max Gust Speed 18 mph    
Visibility 8 miles    
Events      
T = Trace of Precipitation, MM = Missing Value Source: NWS Daily Summary

Daily Weather History Graph

Daily Weather History Graph

Search for Another Location

Airport:

Trip Planner

Search our weather history database for the weather conditions in past years. The results will help you decide how hot, cold, wet, or windy it might be!

Date:

Astronomy

Feb. 06, 2013 Rise Set
Actual Time 7:00 AM CST 5:16 PM CST
Civil Twilight 6:31 AM CST 5:45 PM CST
Nautical Twilight 5:58 AM CST 6:18 PM CST
Astronomical Twilight 5:25 AM CST 6:50 PM CST
Moon 3:45 AM CST (2/6) 1:32 PM CST (2/6)
Length of Visible Light 11h 13m
Length of Day
10h 15m
Waning Crescent, 17% of the Moon is Illuminated
Feb 6
Waning Crescent
Feb 10
New
Feb 17
First Quarter
Feb 25
Full
Mar 4
Last Quarter

Hourly Weather History & Observations

Time (CST) Temp. Windchill Dew Point Humidity Pressure Visibility Wind Dir Wind Speed Gust Speed Precip Events Conditions
12:52 AM 28.0 °F 20.8 °F 21.0 °F 75% 30.14 in 9.0 mi North 6.9 mph - N/A   Overcast
1:52 AM 24.1 °F 16.0 °F 18.0 °F 77% 30.14 in 10.0 mi NNE 6.9 mph - N/A   Overcast
2:52 AM 21.0 °F 10.6 °F 15.1 °F 78% 30.15 in 10.0 mi NNE 9.2 mph - N/A   Scattered Clouds
3:52 AM 12.9 °F - 10.0 °F 88% 30.19 in 9.0 mi Calm Calm - N/A   Partly Cloudy
4:10 AM 12.2 °F 6.1 °F 10.4 °F 92% 30.16 in 9.0 mi NE 3.5 mph - N/A   Mostly Cloudy
4:32 AM 14.0 °F - 10.4 °F 86% 30.16 in 8.0 mi Calm Calm - N/A   Scattered Clouds
4:52 AM 12.9 °F - 10.0 °F 88% 30.20 in 8.0 mi Calm Calm - N/A   Partly Cloudy
5:52 AM 7.0 °F - 6.1 °F 96% 30.21 in 6.0 mi Calm Calm - N/A   Clear
6:52 AM 9.0 °F - 6.1 °F 88% 30.22 in 4.0 mi Calm Calm - N/A   Clear
7:52 AM 8.1 °F - 7.0 °F 95% 30.23 in 4.0 mi Calm Calm - N/A   Clear
8:52 AM 10.9 °F - 10.9 °F 100% 30.25 in 6.0 mi Calm Calm - N/A   Clear
9:52 AM 26.1 °F 20.5 °F 17.1 °F 69% 30.25 in 7.0 mi SE 4.6 mph - N/A   Clear
10:52 AM 30.0 °F 24.1 °F 21.0 °F 69% 30.24 in 7.0 mi SE 5.8 mph - N/A   Clear
11:52 AM 30.9 °F 24.3 °F 23.0 °F 72% 30.25 in 7.0 mi South 6.9 mph - N/A   Clear
12:52 PM 34.0 °F 25.0 °F 26.1 °F 73% 30.20 in 8.0 mi South 12.7 mph - N/A   Clear
1:52 PM 35.1 °F 29.3 °F 27.0 °F 72% 30.20 in 8.0 mi South 6.9 mph - N/A   Overcast
2:52 PM 36.0 °F 28.0 °F 28.0 °F 73% 30.19 in 8.0 mi South 11.5 mph - N/A   Overcast
3:12 PM 35.6 °F 30.7 °F 28.4 °F 75% 30.16 in 8.0 mi South 5.8 mph - N/A   Overcast
3:34 PM 37.4 °F 30.8 °F 28.4 °F 70% 30.15 in 8.0 mi SSE 9.2 mph - N/A   Mostly Cloudy
3:52 PM 36.0 °F 29.6 °F 28.9 °F 76% 30.19 in 8.0 mi South 8.1 mph - N/A   Mostly Cloudy
4:52 PM 35.1 °F 28.6 °F 30.0 °F 82% 30.17 in 7.0 mi SE 8.1 mph - N/A   Clear
5:52 PM 35.1 °F 27.9 °F 30.0 °F 82% 30.16 in 9.0 mi SE 9.2 mph - N/A   Clear
6:52 PM 35.1 °F 27.4 °F 30.0 °F 82% 30.14 in 7.0 mi SE 10.4 mph - N/A   Clear
7:52 PM 34.0 °F 26.6 °F 30.0 °F 85% 30.17 in 8.0 mi South 9.2 mph - N/A   Clear
8:52 PM 34.0 °F 27.2 °F 30.0 °F 85% 30.14 in 7.0 mi SE 8.1 mph - N/A   Overcast
9:52 PM 34.0 °F 28.8 °F 30.0 °F 85% 30.14 in 8.0 mi SE 5.8 mph - N/A   Scattered Clouds
10:52 PM 33.1 °F 23.9 °F 28.9 °F 85% 30.11 in 7.0 mi SE 12.7 mph - N/A   Clear